Date,TemperatureHighF,TemperatureAvgF,TemperatureLowF,DewpointHighF,DewpointAvgF,DewpointLowF,HumidityHigh,HumidityAvg,HumidityLow,PressureMaxIn,PressureMinIn,WindSpeedMaxMPH,WindSpeedAvgMPH,GustSpeedMaxMPH,PrecipitationSumIn
2014-1-1,-10,-15,-26,-15,-20,-30,82,79,76,30.59,30.52,4,0,5,0.00
2014-1-2,-6,-18,-31,-11,-22,-36,83,79,75,30.57,30.12,12,2,21,0.00
2014-1-3,26,10,-7,25,7,-11,94,88,82,30.14,29.24,16,10,31,0.00
2014-1-4,9,-3,-14,6,-9,-100,89,78,71,30.33,29.58,12,6,27,0.00
2014-1-5,-13,-19,-22,-19,-25,-28,78,74,67,30.54,30.32,12,6,20,0.00
2014-1-6,-11,-19,-25,-16,-25,-31,81,74,71,30.47,30.14,10,5,15,0.00
2014-1-7,-4,-11,-20,-10,-15,-24,84,80,75,30.34,30.11,3,1,7,0.00
2014-1-8,-1,-14,-25,-6,-18,-29,83,80,74,30.48,30.17,9,2,19,0.00
2014-1-9,21,12,-2,17,8,-6,87,86,83,30.19,29.60,17,12,34,0.00
2014-1-10,29,21,14,25,18,11,94,88,83,29.60,29.40,13,6,19,0.00
2014-1-11,27,21,13,22,17,-100,94,86,80,29.58,29.31,11,4,17,0.00
2014-1-12,40,32,24,33,27,17,91,82,72,29.51,29.13,14,7,24,0.00
2014-1-13,24,18,15,19,15,12,91,85,77,29.62,29.50,11,3,19,0.00
2014-1-14,15,10,-3,13,7,-7,91,85,78,30.23,29.61,9,4,21,0.00
2014-1-15,39,11,-12,31,7,-16,89,83,70,30.20,29.23,21,9,30,0.01
2014-1-16,36,7,0,31,2,-7,91,80,71,30.16,29.26,18,12,37,0.01
2014-1-17,13,0,-16,11,-5,-20,90,80,71,30.16,29.45,10,3,16,0.00
2014-1-18,35,18,7,29,13,-100,91,86,78,29.98,29.44,17,6,24,0.00
2014-1-19,35,22,9,29,19,6,92,88,77,29.79,29.44,12,3,20,0.00
2014-1-20,8,-7,-26,5,-11,-31,88,81,75,30.60,29.80,11,5,20,0.00
2014-1-21,8,-5,-26,4,-9,-31,86,82,77,30.56,30.03,17,7,26,0.00
2014-1-22,4,-7,-18,1,-11,-22,87,82,80,30.72,30.06,15,6,26,0.00
2014-1-23,25,-8,-26,18,-13,-31,85,79,73,30.77,29.77,18,6,25,0.00
2014-1-24,34,24,2,31,20,-6,94,84,63,29.82,29.48,15,7,25,0.01
2014-1-25,6,1,-6,-1,-6,-100,87,75,59,30.01,29.49,11,5,26,0.01
2014-1-26,12,-1,-12,8,-6,-17,88,82,76,30.31,29.42,18,9,32,0.00
2014-1-27,-9,-15,-21,-16,-20,-26,79,75,71,30.49,30.31,10,4,18,0.00
2014-1-28,1,-8,-19,-5,-15,-24,80,74,69,30.40,29.96,9,5,15,0.00
2014-1-29,22,6,-10,16,0,-15,84,78,72,29.96,29.47,15,6,26,0.00
2014-1-30,10,-2,-11,5,-8,-17,80,76,69,30.02,29.63,9,5,16,0.00
2014-1-31,7,-4,-15,0,-9,-20,85,77,73,30.02,29.84,11,6,17,0.00